Regional Weather Roundup
Issued by NWS Bismarck, ND

Home | Current Version | Previous Version | Text Only | Print | Product List | Glossary On
Versions: 1 2 3 4 5 6 7 8 9 10 11 12 13 14 15 16 17 18 19 20 21 22 23 24 25 26 27 28 29 30 31 32 33 34 35 36 37 38 39 40 41 42 43 44 45 46 47 48 49 50
000
ASUS43 KBIS 040920
RWRBIS

NWR BROADCAST TEXT
NATIONAL WEATHER SERVICE BISMARCK ND
400 AM CDT MON MAY 04 2015

NOTE: "FAIR" INDICATES FEW OR NO CLOUDS BELOW 12,000 FEET WITH NO
SIGNIFICANT WEATHER AND/OR OBSTRUCTIONS TO VISIBILITY.


CITY           SKY/WX    TMP DP  RH WIND       PRES   REMARKS
WILLISTON      CLEAR     32  23  69 N3        30.12S
MINOT          FLURRIES  37  26  64 SW10      30.12S
MINOT AFB      CLEAR     31  26  83 W2        30.12R
BISMARCK       PTCLDY    33  24  69 CALM      30.14S
DICKINSON      MOCLDY    40  25  55 SE3       30.11S
GARRISON         N/A     34  25  69 NW5       30.13S
HETTINGER ARPT MOCLDY    32  26  78 CALM      30.13R
JAMESTOWN      PTCLDY    35  26  69 NW3       30.12R
BEACH          FAIR      36  28  75 E8        30.12S
CARRINGTON     FAIR      32  25  74 NW6       30.14R
CROSBY         FAIR      32  32 100 S6        30.13S
HARVEY         FAIR      36  30  80 N3        30.13R
HAZEN          FAIR      30  25  80 S3        30.15R
LINTON         FAIR      32  27  80 CALM      30.14R
MANDAN         FAIR      39  23  52 W3        30.15R
OAKES            N/A     39  27  60 NW5       30.11S
STANLEY        FAIR      32  32 100 SW3       30.14S
TIOGA          FAIR      28  21  74 CALM      30.15F
WATFORD CITY   FAIR      32  25  74 CALM      30.11F
$$

CITY           SKY/WX    TMP DP  RH WIND       PRES   REMARKS
GRAND FORKS    CLEAR     35  29  78 NW5       30.12R
GRAND FORKS AF CLEAR     38  28  68 N2        30.12R
DEVILS LAKE    CLEAR     37  28  70 CALM      30.13R
FARGO          CLEAR     39  27  62 N10       30.10R
CANDO          FAIR      34  28  80 N6        30.14R
CAVALIER       FAIR      36  32  87 NW3       30.13R
GRAFTON        FAIR      39  34  81 CALM      30.14R
GWINNER        SUNNY     45  27  49 N9        30.12R
LANGDON        FAIR      28  23  80 CALM      30.14R
WALHALLA       FAIR      34  34 100 CALM      30.14R
$$

CITY           SKY/WX    TMP DP  RH WIND       PRES   REMARKS
ABERDEEN       CLEAR     39  26  59 NW5       30.11S
MOBRIDGE       MOCLDY    40  26  57 NW5       30.10R
BUFFALO          N/A     42  33  70 NE8       30.04R
RAPID CITY     CLOUDY    51  32  48 W3        30.12R
GLASGOW        CLEAR     41  24  51 E13       30.07S
SIDNEY         CLEAR     36  25  64 CALM      30.12S
WOLF POINT     CLEAR     33  24  69 E3        30.10S
GLENDIVE       MOCLDY    39  27  60 NE6       30.10S
MILES CITY     MOCLDY    48  29  47 E8        30.05F
BAKER          MOCLDY    37  29  72 SE8       30.10F
$$

CITY           SKY/WX    TMP DP  RH WIND       PRES   REMARKS
BILLINGS       MOCLDY    48  34  58 NE5       29.99F
GREAT FALLS    CLEAR     38  31  76 SW5       29.94F
REGINA         PTCLDY    34  30  86 E5        30.12F
ESTEVAN        CLEAR     34  32  93 NE2       30.12S
$$




USA.gov is the U.S. government's official web portal to all federal, state and local government web resources and services.